WZZ26JT EGGW-EPGD

Flight info

Callsign WZZ26JT
Flight time N/A
Altitude 37000
Route MATCH Q295 SOMVA DCT MAVAS DCT MALYK DCT LUWIL DCT BINKA DCT LUXAL L730 KOSEX
Aircraft A21N/M-SDE1E2E3FGIJ1J4RWXY/LB1

Departure

Time 2026-05-07 20:50
Airport London Luton Airport (EGGW)

Arrival

Time N/A
Airport Gdańsk Lech Wałęsa Airport (EPGD)
Time Latitude Longitude Altitude Speed Heading
2026-05-07 20:21 51.88068 -0.37383 514 ft 0 kts 342°
2026-05-07 20:35 51.88065 -0.37381 514 ft 3 kts 342°
2026-05-07 20:35 51.88041 -0.37366 514 ft 4 kts 329°
2026-05-07 20:35 51.88024 -0.37351 514 ft 4 kts 354°
2026-05-07 20:35 51.88011 -0.37362 514 ft 4 kts 71°
2026-05-07 20:36 51.88004 -0.37398 514 ft 1 kts 72°
2026-05-07 20:36 51.88004 -0.37399 514 ft 0 kts 72°
2026-05-07 20:45 51.88007 -0.37383 514 ft 3 kts 72°
2026-05-07 20:45 51.88016 -0.37338 514 ft 5 kts 72°
2026-05-07 20:45 51.88031 -0.37267 514 ft 8 kts 72°
2026-05-07 20:46 51.88040 -0.37168 514 ft 10 kts 114°
2026-05-07 20:46 51.87970 -0.37107 514 ft 13 kts 162°
2026-05-07 20:46 51.87876 -0.37057 515 ft 16 kts 161°
2026-05-07 20:46 51.87771 -0.37001 522 ft 17 kts 162°
2026-05-07 20:47 51.87671 -0.36948 529 ft 10 kts 167°
2026-05-07 20:47 51.87621 -0.37023 527 ft 12 kts 252°
2026-05-07 20:47 51.87595 -0.37166 527 ft 14 kts 254°
2026-05-07 20:47 51.87577 -0.37328 527 ft 12 kts 280°
2026-05-07 20:48 51.87561 -0.37457 527 ft 13 kts 208°
2026-05-07 20:48 51.87497 -0.37566 528 ft 15 kts 254°
2026-05-07 20:48 51.87468 -0.37746 528 ft 17 kts 254°
2026-05-07 20:48 51.87434 -0.37943 529 ft 16 kts 254°
2026-05-07 20:49 51.87393 -0.38046 529 ft 12 kts 210°
2026-05-07 20:49 51.87315 -0.38108 527 ft 13 kts 201°
2026-05-07 20:49 51.87253 -0.38062 529 ft 10 kts 88°
2026-05-07 20:49 51.87266 -0.37988 529 ft 7 kts 73°
2026-05-07 20:50 51.87298 -0.37804 530 ft 46 kts 74°
2026-05-07 20:50 51.87463 -0.36841 529 ft 127 kts 75°
2026-05-07 20:50 51.87720 -0.35336 955 ft 139 kts 76°
2026-05-07 20:50 51.87974 -0.33818 1566 ft 140 kts 80°
2026-05-07 20:51 51.88233 -0.32249 1897 ft 149 kts 79°
2026-05-07 20:51 51.88531 -0.30537 2155 ft 172 kts 78°
2026-05-07 20:51 51.88882 -0.28525 2574 ft 198 kts 77°
2026-05-07 20:51 51.89275 -0.26232 3026 ft 227 kts 76°
2026-05-07 20:52 51.89691 -0.23612 3558 ft 252 kts 83°
2026-05-07 20:52 51.89489 -0.20783 4336 ft 258 kts 113°
2026-05-07 20:52 51.88443 -0.18454 5280 ft 260 kts 142°
2026-05-07 20:52 51.86803 -0.17239 6205 ft 264 kts 171°
2026-05-07 20:53 51.84961 -0.17293 7120 ft 268 kts 186°
2026-05-07 20:53 51.83106 -0.16938 7995 ft 274 kts 161°
2026-05-07 20:53 51.81360 -0.15639 8675 ft 278 kts 155°
2026-05-07 20:53 51.79615 -0.14246 9036 ft 282 kts 155°
2026-05-07 20:54 51.77865 -0.12757 9816 ft 288 kts 148°
2026-05-07 20:54 51.76382 -0.10542 10529 ft 299 kts 128°
2026-05-07 20:54 51.75452 -0.07436 10931 ft 321 kts 104°
2026-05-07 20:54 51.75360 -0.03767 11518 ft 333 kts 84°
2026-05-07 20:55 51.75706 -0.00051 12322 ft 337 kts 82°
2026-05-07 20:55 51.76076 0.03709 13203 ft 341 kts 83°
2026-05-07 20:55 51.76426 0.07514 14029 ft 344 kts 83°
2026-05-07 20:55 51.76760 0.11365 14764 ft 349 kts 83°
2026-05-07 20:56 51.77089 0.15265 15496 ft 353 kts 84°
2026-05-07 20:56 51.77416 0.19223 16224 ft 358 kts 84°
2026-05-07 20:56 51.77743 0.23230 16949 ft 362 kts 84°
2026-05-07 20:56 51.78075 0.27285 17668 ft 367 kts 84°
2026-05-07 20:57 51.78406 0.31388 18377 ft 371 kts 84°
2026-05-07 20:57 51.78739 0.35546 18986 ft 376 kts 84°
2026-05-07 20:57 51.79078 0.39750 19605 ft 380 kts 84°
2026-05-07 20:57 51.79302 0.42564 20022 ft 382 kts 84°
2026-05-07 20:58 51.79636 0.46833 20636 ft 386 kts 84°
2026-05-07 20:58 51.79976 0.51156 21251 ft 389 kts 84°
2026-05-07 20:58 51.80318 0.55510 21862 ft 393 kts 84°
2026-05-07 20:58 51.80663 0.59910 22459 ft 397 kts 84°
2026-05-07 20:59 51.81052 0.64348 23058 ft 401 kts 79°
2026-05-07 20:59 51.81916 0.68659 23627 ft 406 kts 68°
2026-05-07 20:59 51.83024 0.72875 24116 ft 410 kts 67°
2026-05-07 20:59 51.84153 0.77125 24598 ft 413 kts 67°
2026-05-07 21:00 51.85275 0.81414 25080 ft 416 kts 67°
2026-05-07 21:00 51.86410 0.85746 25551 ft 420 kts 68°
2026-05-07 21:00 51.87536 0.90120 26014 ft 423 kts 67°
2026-05-07 21:00 51.88682 0.94528 26473 ft 426 kts 67°
2026-05-07 21:01 51.89823 0.98969 26925 ft 429 kts 67°
2026-05-07 21:01 51.90963 1.03455 27364 ft 432 kts 67°
2026-05-07 21:01 51.92109 1.07977 27791 ft 436 kts 67°
2026-05-07 21:01 51.93263 1.12537 28211 ft 439 kts 67°
2026-05-07 21:02 51.94430 1.17121 28623 ft 442 kts 67°
2026-05-07 21:02 51.95603 1.21735 29034 ft 445 kts 67°
2026-05-07 21:02 51.96785 1.26384 29436 ft 448 kts 67°
2026-05-07 21:02 51.97972 1.31077 29825 ft 451 kts 67°
2026-05-07 21:03 51.99163 1.35793 30199 ft 453 kts 67°
2026-05-07 21:03 52.00361 1.40541 30511 ft 456 kts 67°
2026-05-07 21:03 52.01560 1.45315 30821 ft 458 kts 67°
2026-05-07 21:03 52.02769 1.50128 31131 ft 461 kts 67°
2026-05-07 21:04 52.03975 1.54960 31445 ft 463 kts 67°
2026-05-07 21:04 52.05189 1.59818 31760 ft 465 kts 67°
2026-05-07 21:04 52.06410 1.64699 32051 ft 467 kts 67°
2026-05-07 21:04 52.07644 1.69592 32380 ft 468 kts 67°
2026-05-07 21:05 52.08872 1.74497 32762 ft 468 kts 67°
2026-05-07 21:05 52.10092 1.79394 33137 ft 467 kts 67°
2026-05-07 21:05 52.11306 1.84290 33503 ft 467 kts 68°
2026-05-07 21:05 52.12515 1.89185 33863 ft 466 kts 68°
2026-05-07 21:06 52.13704 1.94015 34180 ft 466 kts 68°
2026-05-07 21:06 52.14903 1.98913 34443 ft 466 kts 68°
2026-05-07 21:06 52.16101 2.03803 34724 ft 465 kts 68°
2026-05-07 21:06 52.17296 2.08695 34992 ft 465 kts 68°
2026-05-07 21:07 52.18491 2.13589 35248 ft 465 kts 68°
2026-05-07 21:07 52.19681 2.18481 35499 ft 464 kts 68°
2026-05-07 21:07 52.20860 2.23379 35745 ft 464 kts 68°
2026-05-07 21:07 52.22046 2.28272 35984 ft 464 kts 68°
2026-05-07 21:08 52.23232 2.33172 36218 ft 464 kts 68°
2026-05-07 21:08 52.24411 2.38065 36452 ft 463 kts 68°
2026-05-07 21:08 52.25587 2.42959 36676 ft 463 kts 69°
2026-05-07 21:08 52.26759 2.47854 36923 ft 462 kts 69°
2026-05-07 21:09 52.27933 2.52735 37122 ft 461 kts 69°
2026-05-07 21:09 52.30258 2.62471 37133 ft 459 kts 70°
2026-05-07 21:10 52.32147 2.72424 37126 ft 459 kts 74°
2026-05-07 21:10 52.33895 2.82450 37122 ft 459 kts 75°
2026-05-07 21:11 52.35654 2.92484 37118 ft 459 kts 75°
2026-05-07 21:11 52.38276 3.07533 37114 ft 458 kts 75°
2026-05-07 21:12 52.39984 3.17622 37119 ft 463 kts 76°
2026-05-07 21:12 52.41548 3.27958 37123 ft 472 kts 77°
2026-05-07 21:13 52.43114 3.38477 37117 ft 476 kts 77°
2026-05-07 21:13 52.44672 3.49037 37108 ft 476 kts 77°
2026-05-07 21:14 52.46215 3.59598 37114 ft 476 kts 77°
2026-05-07 21:14 52.47743 3.70077 37123 ft 474 kts 77°
2026-05-07 21:15 52.49276 3.80593 37122 ft 474 kts 77°
2026-05-07 21:15 52.50801 3.91198 37126 ft 474 kts 77°
2026-05-07 21:16 52.52298 4.01752 37113 ft 477 kts 77°
2026-05-07 21:16 52.53819 4.12416 37120 ft 481 kts 78°
2026-05-07 21:17 52.55289 4.23056 37110 ft 480 kts 78°
2026-05-07 21:17 52.56784 4.33789 37108 ft 481 kts 78°
2026-05-07 21:18 52.58272 4.44500 37106 ft 482 kts 78°
2026-05-07 21:18 52.59769 4.55292 37105 ft 481 kts 78°
2026-05-07 21:19 52.61235 4.66035 37106 ft 480 kts 78°
2026-05-07 21:19 52.62690 4.76778 37108 ft 482 kts 78°
2026-05-07 21:20 52.64128 4.87531 37106 ft 481 kts 78°
2026-05-07 21:20 52.65562 4.98228 37105 ft 480 kts 78°
2026-05-07 21:21 52.66983 5.08949 37113 ft 477 kts 78°
2026-05-07 21:21 52.68406 5.19675 37113 ft 479 kts 78°
2026-05-07 21:22 52.69848 5.30371 37112 ft 479 kts 78°
2026-05-07 21:22 52.71249 5.41099 37112 ft 478 kts 79°
2026-05-07 21:23 52.72634 5.51844 37110 ft 478 kts 79°
2026-05-07 21:23 52.74000 5.62590 37109 ft 480 kts 79°
2026-05-07 21:24 52.75369 5.73337 37110 ft 479 kts 79°
2026-05-07 21:24 52.76704 5.84097 37109 ft 478 kts 79°
2026-05-07 21:25 52.78025 5.94860 37109 ft 478 kts 79°
2026-05-07 21:25 52.79359 6.05641 37108 ft 478 kts 79°
2026-05-07 21:26 52.80690 6.16417 37121 ft 480 kts 79°
2026-05-07 21:26 52.82034 6.27195 37118 ft 480 kts 79°
2026-05-07 21:27 52.83359 6.37979 37120 ft 479 kts 79°
2026-05-07 21:27 52.84642 6.48753 37123 ft 477 kts 79°
2026-05-07 21:28 52.85923 6.59534 37125 ft 476 kts 80°
2026-05-07 21:28 52.87195 6.70304 37139 ft 478 kts 79°
2026-05-07 21:29 52.88464 6.81071 37128 ft 477 kts 80°
2026-05-07 21:29 52.89718 6.91834 37186 ft 476 kts 80°
2026-05-07 21:30 52.90962 7.02597 37054 ft 475 kts 80°
2026-05-07 21:30 52.91577 7.07976 36820 ft 475 kts 80°
2026-05-07 21:30 52.92186 7.13348 36564 ft 474 kts 80°
2026-05-07 21:31 52.92796 7.18718 36324 ft 474 kts 80°
2026-05-07 21:31 52.93397 7.24085 36063 ft 474 kts 80°
2026-05-07 21:31 52.94001 7.29446 35812 ft 473 kts 80°
2026-05-07 21:31 52.94607 7.34807 35564 ft 473 kts 80°
2026-05-07 21:32 52.95206 7.40163 35319 ft 473 kts 80°
2026-05-07 21:32 52.95801 7.45519 35073 ft 472 kts 81°
2026-05-07 21:32 52.96391 7.50877 34832 ft 472 kts 81°
2026-05-07 21:32 52.96984 7.56226 34592 ft 471 kts 81°
2026-05-07 21:33 52.97573 7.61572 34356 ft 471 kts 81°
2026-05-07 21:33 52.98157 7.66929 34108 ft 471 kts 81°
2026-05-07 21:33 52.98738 7.72274 33830 ft 472 kts 80°
2026-05-07 21:33 52.99430 7.77602 33551 ft 472 kts 78°
2026-05-07 21:34 53.00136 7.82930 33280 ft 472 kts 78°
2026-05-07 21:34 53.00846 7.88246 33008 ft 471 kts 78°
2026-05-07 21:34 53.01545 7.93488 32741 ft 472 kts 78°
2026-05-07 21:34 53.02257 7.98814 32473 ft 472 kts 78°
2026-05-07 21:35 53.02966 8.04141 32209 ft 473 kts 78°
2026-05-07 21:35 53.03670 8.09469 31947 ft 473 kts 78°
2026-05-07 21:35 53.04362 8.14816 31690 ft 474 kts 78°
2026-05-07 21:35 53.05056 8.20185 31424 ft 475 kts 78°
2026-05-07 21:36 53.05753 8.25552 31164 ft 476 kts 78°
2026-05-07 21:36 53.06449 8.30935 30926 ft 476 kts 78°
2026-05-07 21:36 53.07139 8.36321 30675 ft 477 kts 78°
2026-05-07 21:36 53.07838 8.41791 30416 ft 477 kts 78°
2026-05-07 21:37 53.08524 8.47124 30187 ft 478 kts 78°
2026-05-07 21:37 53.09225 8.52609 29898 ft 478 kts 78°
2026-05-07 21:37 53.09903 8.57957 29615 ft 479 kts 78°
2026-05-07 21:37 53.10600 8.63453 29328 ft 479 kts 78°
2026-05-07 21:38 53.11276 8.68811 29040 ft 480 kts 78°
2026-05-07 21:38 53.11968 8.74325 28757 ft 481 kts 78°
2026-05-07 21:38 53.12639 8.79708 28486 ft 481 kts 79°
2026-05-07 21:38 53.13313 8.85171 28210 ft 482 kts 78°
2026-05-07 21:39 53.13991 8.90633 27942 ft 482 kts 78°
2026-05-07 21:39 53.14667 8.96111 27664 ft 483 kts 79°
2026-05-07 21:39 53.15340 9.01596 27394 ft 483 kts 79°
2026-05-07 21:39 53.16012 9.07085 27127 ft 484 kts 79°
2026-05-07 21:40 53.16680 9.12578 26862 ft 485 kts 79°
2026-05-07 21:40 53.17349 9.18085 26599 ft 485 kts 79°
2026-05-07 21:40 53.18013 9.23605 26335 ft 486 kts 79°
2026-05-07 21:40 53.18673 9.29127 26079 ft 486 kts 79°
2026-05-07 21:41 53.19333 9.34654 25822 ft 487 kts 79°
2026-05-07 21:41 53.19990 9.40199 25566 ft 487 kts 79°
2026-05-07 21:41 53.20653 9.45746 25326 ft 488 kts 79°
2026-05-07 21:41 53.21314 9.51307 25079 ft 487 kts 79°
2026-05-07 21:42 53.21954 9.56716 24834 ft 465 kts 79°
2026-05-07 21:42 53.22558 9.61896 24578 ft 445 kts 79°
2026-05-07 21:42 53.22945 9.65212 24405 ft 433 kts 79°
2026-05-07 21:42 53.23508 9.70052 24156 ft 417 kts 79°
2026-05-07 21:43 53.24049 9.74709 23916 ft 402 kts 79°
2026-05-07 21:43 53.24571 9.79210 23665 ft 388 kts 79°
2026-05-07 21:43 53.25071 9.83559 23374 ft 376 kts 79°
2026-05-07 21:43 53.25553 9.87781 23080 ft 364 kts 79°
2026-05-07 21:44 53.26014 9.91877 22801 ft 354 kts 79°
2026-05-07 21:44 53.26469 9.95898 22532 ft 351 kts 79°
2026-05-07 21:44 53.26924 9.99887 22258 ft 349 kts 79°
2026-05-07 21:44 53.27378 10.03866 21984 ft 348 kts 79°
2026-05-07 21:45 53.27831 10.07825 21731 ft 346 kts 79°
2026-05-07 21:45 53.28278 10.11770 21468 ft 345 kts 79°
2026-05-07 21:45 53.28720 10.15700 21208 ft 344 kts 79°
2026-05-07 21:45 53.29161 10.19619 20952 ft 342 kts 79°
2026-05-07 21:46 53.29592 10.23522 20696 ft 341 kts 79°
2026-05-07 21:46 53.30022 10.27400 20451 ft 339 kts 79°
2026-05-07 21:46 53.30452 10.31260 20208 ft 337 kts 79°
2026-05-07 21:46 53.30877 10.35107 19962 ft 336 kts 79°
2026-05-07 21:47 53.31304 10.38952 19718 ft 335 kts 79°
2026-05-07 21:47 53.31724 10.42774 19474 ft 334 kts 80°
2026-05-07 21:47 53.32136 10.46591 19235 ft 333 kts 80°
2026-05-07 21:47 53.32553 10.50393 18998 ft 332 kts 79°
2026-05-07 21:48 53.32971 10.54184 18763 ft 330 kts 79°
2026-05-07 21:48 53.33384 10.57957 18517 ft 329 kts 80°
2026-05-07 21:48 53.33791 10.61714 18282 ft 328 kts 80°
2026-05-07 21:48 53.34194 10.65459 18006 ft 326 kts 80°
2026-05-07 21:49 53.34596 10.69190 17740 ft 325 kts 80°
2026-05-07 21:49 53.34997 10.72910 17473 ft 324 kts 80°
2026-05-07 21:49 53.35390 10.76610 17211 ft 322 kts 80°
2026-05-07 21:49 53.35777 10.80248 16951 ft 321 kts 80°
2026-05-07 21:50 53.36173 10.83966 16684 ft 320 kts 80°
2026-05-07 21:50 53.36557 10.87621 16483 ft 318 kts 80°